Wind_Speed
33 33 34 36 36 37 37 38 38 38 40 39 38 37 38 39 39 39 39 39 39 39 39 38 39 39 39 39 37 36 35 34 35 36 35 33 32 31 31 30 29 29 30
30 31 33 33 34 35 39 40 41 41 42 41 40 40 38 38 40 39 39 40 42 41 41 41 40 41 41 39 38 37 35 35 35 36 35 33 32 33 33 31 30 31 32
29 31 33 35 35 37 39 39 40 41 42 43 43 42 40 39 39 39 40 41 42 42 43 42 42 42 42 40 38 38 38 36 35 34 34 34 33 32 32 32 32 31 31
29 32 34 35 35 37 38 38 39 41 42 43 43 42 42 41 41 41 41 42 42 42 44 44 42 42 42 41 41 39 39 37 35 34 34 35 35 34 32 33 33 32 31
29 31 34 35 36 36 36 36 37 39 41 42 42 42 42 42 41 41 42 42 43 43 43 43 42 42 41 41 41 40 39 37 36 35 35 35 34 33 33 32 32 32 30
27 30 33 35 35 35 35 35 37 38 39 40 41 41 42 42 41 40 40 41 41 42 42 42 42 42 41 41 41 39 39 37 37 36 36 35 34 33 33 32 31 31 30
27 29 30 31 32 34 34 34 36 37 39 40 40 41 41 41 41 40 40 40 40 40 40 40 41 41 40 40 40 40 39 38 39 38 37 35 35 34 33 32 30 30 30
27 28 30 31 33 34 34 35 35 36 37 38 40 41 41 41 41 41 41 40 40 40 40 40 41 41 41 41 41 41 40 39 39 38 38 36 36 34 32 31 29 28 28
28 30 31 33 34 34 35 36 36 36 37 38 39 40 41 42 42 42 42 42 41 41 41 41 41 41 42 42 42 41 40 39 38 38 36 36 35 33 32 31 29 28 28
31 32 33 34 34 35 36 37 38 38 38 39 40 40 41 41 42 42 42 42 42 42 41 41 41 42 42 42 42 42 40 39 37 36 35 35 35 34 32 30 29 29 30
32 33 34 35 36 37 38 38 38 39 40 40 40 40 40 40 40 41 41 42 42 42 42 42 42 42 41 41 41 40 38 37 36 35 35 34 34 32 31 31 30 29 29
35 36 36 37 37 37 38 38 39 40 41 40 40 40 40 39 39 39 40 40 40 41 41 41 41 40 39 39 39 38 36 35 33 33 33 32 31 30 29 29 28 28 29
38 38 38 38 39 39 38 39 39 40 41 40 40 40 39 38 37 37 37 37 37 37 37 38 38 37 36 36 35 34 32 31 30 30 31 30 30 28 28 27 27 27 27
41 41 42 42 42 42 42 41 41 41 40 41 40 40 39 37 36 35 33 33 33 33 33 32 31 30 30 30 29 29 28 27 27 27 27 27 28 27 26 26 26 25 25
44 45 45 45 45 44 44 43 42 41 41 41 40 39 38 37 35 33 31 30 29 27 26 26 25 25 25 24 25 25 24 24 24 24 24 24 24 25 24 23 22 22 22
47 48 48 48 47 47 46 45 43 42 40 40 40 38 36 35 33 31 29 27 25 24 23 21 21 21 20 19 20 21 22 22 21 21 21 22 22 22 21 20 20 19 17
51 51 51 50 50 49 48 46 44 43 40 39 38 37 34 32 30 28 26 24 22 20 19 18 17 17 16 17 17 18 18 19 19 19 18 17 18 16 17 17 17 16 15
55 55 55 54 53 52 50 47 45 43 40 39 37 35 32 30 29 26 24 22 20 19 17 16 15 14 13 14 14 14 15 17 17 16 16 15 15 15 14 14 13 12 11
59 59 58 57 55 54 51 49 46 43 41 40 37 35 32 30 27 25 23 21 19 17 16 14 14 12 11 11 11 10 10 11 12 12 12 12 11 11 10 9 8 8 9
61 61 60 59 58 55 53 50 47 43 40 38 36 34 33 30 27 24 22 20 18 16 14 12 11 10 9 9 9 9 9 10 11 11 12 11 10 9 8 7 7 8 9
65 64 63 62 60 57 54 51 48 44 41 39 37 34 32 29 26 25 22 20 17 15 13 11 10 9 8 8 9 9 9 10 10 11 10 10 9 8 7 7 7 7 8
69 68 66 63 60 58 56 52 50 47 43 40 37 35 33 30 26 24 22 20 17 15 13 11 10 9 8 8 9 9 8 9 9 9 9 8 8 7 7 7 7 7 8
70 68 66 63 59 57 55 52 50 48 45 42 40 37 34 31 28 25 22 21 18 15 13 12 10 10 9 9 9 9 9 10 10 9 9 8 8 7 7 7 7 8 9
67 64 61 57 54 51 49 48 47 46 46 44 41 38 35 32 29 25 23 22 20 17 15 14 13 13 12 11 11 11 11 11 10 9 9 8 7 7 7 7 8 9 10
59 55 51 48 46 45 44 44 44 44 44 42 41 39 35 33 30 27 24 23 22 19 17 16 15 15 15 14 13 13 12 12 11 10 10 9 8 8 8 8 8 10 11
49 46 43 41 40 41 40 40 41 41 41 41 40 38 34 33 31 29 26 25 23 21 20 19 17 16 16 15 15 14 13 13 12 11 11 10 9 9 9 9 10 11 12
Wind_Direction
287 292 297 301 301 301 297 297 291 287 285 283 279 276 273 272 273 273 273 275 276 276 276 275 275 274 274 276 276 278 279 282 282 281 280 280 281 282 281 279 277 275 273
289 294 298 300 301 302 301 298 294 291 289 287 284 284 281 275 274 273 273 274 275 275 276 277 277 277 275 275 279 280 282 284 283 282 281 279 279 281 278 276 276 275 272
290 296 298 300 300 299 298 297 294 293 292 290 288 288 285 283 279 278 276 275 275 275 276 276 275 277 279 280 280 280 281 282 283 284 281 280 278 277 276 275 277 275 271
291 295 298 301 301 299 297 296 295 294 293 291 290 288 286 283 280 279 278 277 276 276 276 277 275 276 278 279 281 281 282 282 282 283 283 283 281 277 274 275 275 274 269
291 294 297 301 300 299 299 298 296 294 293 293 292 290 288 286 284 281 278 277 276 276 276 277 278 276 277 278 281 281 281 281 280 280 282 282 282 279 276 275 275 271 266
295 296 299 300 301 302 301 299 298 296 295 294 292 291 290 289 287 285 281 279 278 277 277 277 277 278 278 280 280 280 280 279 279 279 280 281 280 280 278 277 274 270 265
301 301 302 305 305 305 306 305 302 300 297 295 294 292 291 289 287 286 284 281 279 278 278 279 278 279 279 280 280 279 278 278 278 278 279 279 279 279 277 276 274 271 265
306 307 309 311 311 311 311 310 307 305 301 298 295 293 291 291 289 287 284 283 281 280 279 278 278 279 278 279 280 280 277 277 277 277 277 276 276 276 274 273 271 269 266
315 316 315 316 316 315 314 314 312 309 306 302 299 295 292 290 289 287 285 284 282 281 279 279 279 279 278 279 279 280 277 276 276 275 274 273 272 272 271 269 267 266 263
316 316 316 316 317 317 316 315 314 313 311 307 303 299 295 292 289 287 285 283 282 280 279 279 279 280 278 278 279 278 277 274 273 271 271 271 270 269 267 266 265 264 261
314 314 316 317 318 317 316 315 314 312 311 310 307 304 300 296 293 290 286 283 281 280 279 279 279 280 279 279 278 276 274 271 270 269 268 268 267 266 263 263 262 260 258
312 312 313 313 313 313 313 312 312 310 310 310 308 307 304 300 297 294 289 285 282 280 279 279 279 279 279 279 278 274 271 269 269 267 265 263 263 260 259 259 259 257 257
308 308 309 309 310 310 311 311 310 309 309 309 309 308 306 302 300 297 293 289 285 282 280 280 279 279 279 279 276 271 270 267 265 262 260 260 260 258 256 255 255 254 253
306 307 308 308 309 308 309 309 308 307 308 308 308 308 306 303 301 299 297 293 288 284 282 280 280 280 278 276 272 267 264 265 263 261 257 256 255 253 250 250 251 249 248
304 304 304 305 306 306 306 307 308 307 306 307 307 306 305 303 301 298 296 295 290 285 282 282 280 280 278 273 267 262 259 258 258 255 253 251 249 247 245 244 245 245 246
300 300 300 302 303 304 304 305 305 305 304 305 305 304 304 303 301 297 295 293 290 286 285 285 286 282 276 269 264 262 258 255 251 250 248 242 239 240 239 240 243 243 245
298 299 300 301 301 302 301 302 303 302 302 302 301 302 302 302 299 296 293 292 290 287 287 288 290 285 277 272 268 262 257 253 246 245 241 236 233 234 236 236 237 237 240
299 299 299 299 299 298 298 298 299 298 297 298 297 298 298 298 297 293 292 291 290 289 286 285 288 288 276 271 265 257 250 242 238 236 236 235 232 227 227 228 232 237 246
297 296 296 296 295 295 294 294 294 293 292 292 292 291 291 292 290 289 287 287 288 287 285 283 283 281 273 268 262 247 235 229 223 221 221 218 210 211 213 219 227 241 256
295 295 295 294 293 292 291 290 289 287 285 285 284 283 284 283 282 281 280 280 282 282 280 278 275 270 262 251 244 233 227 221 215 207 201 199 200 203 208 220 234 250 264
296 296 295 294 292 290 288 286 283 280 278 277 276 274 277 276 273 271 269 270 272 272 270 266 263 259 248 234 227 222 221 214 203 193 191 192 195 201 215 230 244 259 273
297 296 294 292 290 287 284 280 277 274 270 268 268 266 269 269 265 262 258 259 259 259 256 254 249 245 234 221 215 212 209 200 190 186 187 192 202 212 223 237 252 267 281
298 296 294 291 288 284 280 276 271 267 263 260 261 261 262 260 255 253 249 250 248 246 245 241 235 227 220 214 207 203 200 195 191 192 198 205 211 220 234 249 263 277 291
298 296 293 290 286 282 278 274 268 262 258 255 254 252 253 250 246 243 240 242 239 236 234 231 226 221 215 209 205 203 199 197 199 203 206 210 219 232 245 258 273 285 297
299 297 293 290 286 282 278 273 267 261 256 252 248 246 244 238 236 234 233 234 232 227 225 224 221 216 212 210 207 205 203 205 209 212 217 223 231 241 251 265 280 292 302
301 299 295 292 288 284 280 273 267 259 254 249 244 240 236 230 228 226 225 227 226 221 219 218 216 213 211 209 206 206 208 211 215 220 224 232 241 250 260 273 285 294 301
Height
5891 5889 5887 5884 5880 5876 5872 5869 5864 5861 5859 5856 5853 5851 5850 5849 5848 5848 5847 5847 5847 5846 5844 5843 5841 5840 5838 5837 5835 5835 5835 5835 5834 5834 5833 5833 5832 5831 5830 5829 5829 5828 5827
5885 5884 5881 5878 5874 5870 5865 5861 5857 5853 5850 5846 5844 5843 5841 5840 5839 5838 5838 5837 5836 5835 5834 5832 5831 5829 5828 5827 5827 5825 5825 5825 5824 5824 5823 5823 5824 5823 5821 5820 5820 5819 5819
5880 5878 5875 5872 5868 5863 5859 5854 5849 5845 5841 5838 5836 5834 5833 5832 5831 5829 5828 5827 5826 5825 5823 5821 5820 5818 5817 5817 5816 5815 5815 5815 5814 5813 5813 5813 5814 5813 5813 5811 5811 5810 5810
5873 5871 5868 5865 5860 5856 5851 5847 5842 5837 5833 5829 5827 5825 5823 5822 5821 5820 5818 5817 5815 5814 5812 5810 5808 5807 5806 5806 5806 5806 5805 5805 5805 5804 5804 5804 5803 5803 5803 5803 5802 5801 5802
5867 5864 5861 5857 5853 5848 5844 5839 5835 5830 5825 5821 5818 5815 5813 5811 5810 5809 5808 5806 5804 5803 5802 5800 5798 5796 5795 5796 5795 5795 5795 5795 5795 5794 5794 5793 5793 5792 5792 5793 5793 5792 5793
5860 5857 5854 5849 5844 5840 5835 5831 5826 5821 5817 5813 5809 5806 5803 5801 5799 5798 5797 5795 5794 5792 5791 5790 5789 5787 5786 5786 5785 5785 5784 5784 5784 5784 5784 5784 5784 5783 5782 5783 5783 5783 5784
5852 5850 5846 5841 5836 5831 5827 5822 5818 5813 5809 5804 5800 5797 5794 5791 5789 5787 5786 5784 5783 5782 5780 5779 5778 5777 5776 5775 5775 5774 5774 5773 5773 5774 5774 5774 5774 5774 5774 5774 5774 5775 5775
5844 5841 5836 5832 5827 5822 5818 5814 5810 5805 5801 5796 5792 5788 5784 5781 5778 5776 5775 5773 5772 5770 5769 5768 5767 5766 5765 5764 5764 5762 5762 5762 5762 5762 5763 5763 5764 5764 5764 5765 5766 5766 5767
5835 5831 5827 5823 5818 5814 5809 5805 5800 5796 5791 5787 5782 5778 5774 5771 5768 5765 5763 5761 5760 5759 5758 5756 5756 5755 5754 5754 5753 5752 5751 5751 5751 5752 5752 5752 5753 5754 5755 5756 5757 5758 5759
5828 5823 5819 5815 5810 5806 5801 5796 5791 5786 5782 5777 5772 5768 5764 5760 5757 5754 5751 5749 5748 5746 5746 5745 5744 5743 5743 5742 5741 5740 5740 5740 5740 5740 5741 5741 5743 5744 5745 5746 5747 5749 5750
5820 5816 5811 5807 5802 5797 5793 5788 5782 5777 5772 5767 5762 5757 5753 5749 5745 5742 5740 5737 5736 5734 5733 5733 5732 5731 5730 5730 5728 5728 5727 5728 5729 5729 5730 5731 5733 5734 5736 5737 5739 5740 5741
5812 5808 5804 5799 5795 5790 5785 5779 5774 5769 5763 5758 5753 5748 5743 5739 5735 5731 5728 5726 5724 5723 5721 5720 5720 5719 5718 5717 5716 5716 5716 5717 5718 5718 5720 5721 5723 5725 5726 5728 5730 5732 5733
5804 5800 5796 5791 5786 5781 5776 5771 5765 5760 5754 5749 5743 5738 5734 5729 5725 5721 5718 5715 5713 5712 5710 5709 5708 5707 5706 5706 5704 5704 5705 5706 5707 5709 5710 5712 5714 5716 5718 5720 5722 5724 5726
5795 5790 5786 5781 5776 5771 5766 5761 5756 5750 5745 5739 5734 5729 5725 5720 5716 5712 5709 5706 5703 5702 5700 5699 5698 5697 5696 5696 5695 5696 5696 5697 5698 5699 5701 5703 5706 5708 5710 5712 5715 5717 5718
5785 5780 5775 5771 5766 5761 5756 5751 5746 5741 5735 5730 5725 5720 5716 5711 5708 5704 5701 5698 5696 5694 5692 5691 5690 5689 5688 5687 5687 5688 5689 5690 5691 5692 5694 5696 5698 5700 5703 5705 5707 5710 5712
5775 5770 5765 5760 5755 5750 5745 5740 5735 5731 5726 5721 5716 5711 5707 5703 5699 5696 5693 5690 5688 5687 5686 5684 5683 5682 5681 5681 5681 5681 5682 5683 5685 5686 5688 5689 5691 5694 5696 5699 5702 5704 5706
5763 5757 5752 5747 5742 5737 5733 5728 5724 5720 5715 5711 5707 5703 5699 5695 5692 5689 5687 5685 5683 5681 5680 5679 5678 5676 5676 5675 5675 5675 5676 5677 5679 5681 5682 5684 5687 5689 5692 5694 5697 5699 5701
5748 5742 5737 5733 5728 5724 5719 5716 5713 5709 5705 5701 5698 5694 5691 5688 5685 5683 5681 5679 5677 5676 5675 5674 5673 5672 5671 5671 5671 5671 5671 5673 5674 5677 5679 5681 5683 5686 5689 5691 5694 5696 5698
5733 5727 5722 5717 5713 5709 5705 5702 5700 5697 5694 5691 5688 5685 5682 5680 5678 5676 5675 5673 5672 5671 5670 5669 5668 5668 5668 5668 5668 5668 5669 5670 5672 5674 5676 5678 5681 5684 5686 5689 5691 5693 5694
5718 5712 5706 5701 5696 5693 5690 5687 5685 5683 5681 5679 5677 5676 5673 5672 5671 5670 5669 5668 5667 5666 5665 5665 5664 5664 5664 5665 5665 5666 5667 5668 5670 5672 5674 5677 5679 5682 5684 5687 5688 5690 5691
5699 5692 5686 5681 5677 5674 5672 5670 5669 5668 5667 5666 5666 5665 5664 5663 5662 5662 5662 5662 5661 5661 5661 5661 5661 5661 5662 5662 5663 5664 5665 5667 5669 5671 5673 5675 5678 5680 5683 5684 5686 5686 5687
5678 5671 5666 5661 5657 5653 5651 5651 5650 5651 5651 5651 5652 5652 5653 5653 5653 5654 5654 5655 5655 5656 5656 5657 5657 5658 5659 5660 5661 5662 5664 5666 5668 5670 5672 5675 5677 5679 5681 5682 5683 5683 5683
5656 5649 5643 5639 5635 5631 5629 5629 5630 5631 5633 5635 5637 5639 5641 5643 5644 5645 5646 5648 5649 5650 5651 5653 5654 5655 5656 5658 5659 5661 5663 5665 5667 5669 5671 5673 5675 5677 5678 5679 5679 5679 5679
5635 5627 5621 5616 5613 5610 5608 5607 5609 5611 5614 5617 5621 5624 5627 5631 5633 5635 5638 5641 5643 5644 5646 5648 5650 5652 5653 5655 5657 5659 5661 5663 5666 5668 5669 5671 5673 5674 5675 5675 5676 5676 5675
5614 5607 5601 5597 5594 5591 5589 5588 5589 5591 5595 5599 5604 5609 5613 5618 5622 5625 5629 5633 5636 5638 5641 5643 5645 5647 5650 5652 5654 5657 5659 5661 5664 5666 5667 5669 5670 5671 5672 5672 5672 5671 5671
5596 5590 5585 5580 5577 5574 5572 5571 5572 5574 5578 5583 5588 5594 5599 5605 5610 5615 5620 5624 5628 5631 5634 5637 5640 5643 5646 5648 5651 5654 5656 5659 5661 5663 5664 5666 5667 5667 5668 5668 5668 5667 5666